GEFSSE_500_meanwind_000.txt.gz
Wind_Speed
13 16 17 15 16 14 15 18 15 15 15 14 13 14 14 13 12 12 11 11 11 11 11 10 11 10 10 9 10 12 13 12 12 12 13 14 14 13 13 11 13 13 15
20 20 19 16 15 15 13 19 18 18 19 17 16 16 16 16 16 15 15 15 15 15 14 14 13 12 11 10 11 11 11 11 11 12 12 12 13 14 13 13 13 13 14
20 17 16 14 14 17 18 21 21 20 20 19 18 18 18 17 17 16 15 15 16 16 16 16 16 15 15 14 13 12 12 11 11 13 14 14 14 13 14 14 14 14 15
17 13 13 12 14 17 21 26 24 22 22 20 19 19 18 18 18 17 17 18 19 20 19 19 18 18 18 18 16 15 15 14 14 15 16 16 17 17 17 17 17 17 17
13 13 11 13 16 17 19 23 24 25 26 24 22 21 21 20 21 21 22 24 24 24 24 25 24 24 23 22 21 20 18 16 17 18 17 15 15 17 19 20 22 22 20
10 10 10 12 11 14 16 18 24 26 26 25 23 24 26 24 22 22 28 29 27 27 28 31 33 29 28 25 24 23 19 17 17 20 19 18 16 16 19 23 25 26 25
4 4 7 10 11 17 20 22 26 28 26 26 25 26 31 27 27 28 31 30 26 30 31 32 36 30 32 31 26 22 18 18 19 22 23 21 20 21 23 27 28 29 30
1 3 6 11 14 14 18 22 30 32 29 28 28 27 27 29 29 26 26 25 25 25 28 29 25 23 25 27 25 21 17 22 22 24 25 27 26 28 30 33 32 34 34
4 8 11 14 15 16 13 14 19 25 25 26 24 25 27 27 27 26 23 23 26 26 24 22 24 26 23 23 23 23 23 24 26 28 28 29 31 33 35 37 39 40 38
8 10 13 17 20 21 20 21 21 23 24 25 25 26 27 26 29 30 29 28 27 27 25 25 26 27 26 24 26 25 25 28 32 34 35 35 36 37 39 40 42 43 43
11 12 14 15 18 22 24 24 25 26 27 27 26 27 28 27 27 27 29 30 29 29 29 30 30 29 29 26 26 30 32 32 36 38 39 39 41 42 42 43 44 45 46
13 13 14 15 17 19 21 24 27 28 29 29 30 29 28 27 27 27 28 29 30 30 30 32 33 33 32 32 31 33 37 37 37 39 41 43 45 45 42 43 45 44 45
14 15 16 17 19 20 22 24 27 29 28 28 29 28 27 27 28 28 29 29 30 31 32 33 34 35 35 35 35 36 37 39 40 41 42 44 45 46 45 44 44 45 45
15 16 18 19 21 22 23 25 26 29 29 27 27 27 27 29 30 31 32 32 33 34 35 36 37 37 38 39 39 39 41 41 41 43 44 45 46 47 48 47 48 48 48
18 20 22 24 25 25 26 27 28 29 30 30 30 31 33 34 33 33 33 33 34 35 36 37 38 39 40 41 41 42 42 42 43 44 46 46 48 49 49 50 50 51 51
24 25 26 28 28 27 27 27 28 30 32 33 34 36 37 38 38 38 39 39 39 39 38 38 39 40 42 43 44 45 46 47 48 49 49 49 49 49 50 50 49 51 51
25 26 27 28 29 29 29 30 30 32 34 36 37 39 39 41 42 44 45 46 46 45 45 45 45 46 47 49 50 51 52 53 54 54 53 53 53 52 52 52 51 52 51
25 28 29 30 31 31 28 30 32 34 36 38 37 38 39 40 42 44 46 48 49 49 50 53 56 57 58 60 61 62 62 63 62 62 61 60 60 59 57 56 55 55 55
28 30 29 30 30 27 24 26 29 32 35 36 35 37 40 43 45 47 49 50 51 54 57 59 61 63 63 65 65 65 65 66 65 64 65 65 65 67 66 65 64 61 61
32 33 31 32 34 29 24 25 26 30 31 32 35 38 42 44 47 50 52 52 55 59 61 61 62 62 62 64 65 64 65 67 68 65 63 59 59 62 64 66 69 70 69
35 37 36 37 43 40 30 33 29 28 31 35 37 40 44 48 51 54 56 59 62 63 64 65 64 65 66 69 70 70 69 68 71 71 67 67 67 70 71 69 70 68 68
36 38 37 37 39 46 48 33 34 34 39 43 42 45 48 49 54 59 62 64 67 68 70 72 73 75 76 79 81 82 82 80 80 81 83 83 79 79 79 80 80 76 72
34 36 38 40 41 40 42 43 48 48 52 49 49 50 50 54 59 64 67 70 73 76 78 81 82 84 85 86 87 87 88 88 87 85 84 82 81 81 80 79 75 74 75
34 36 39 42 45 44 50 54 54 53 54 54 54 55 59 63 67 70 73 75 78 79 80 80 81 82 83 82 79 78 78 78 78 79 77 75 70 66 64 61 62 63 67
37 39 42 44 47 49 51 53 55 56 57 58 60 64 67 70 74 76 78 79 80 80 78 76 75 74 73 72 69 67 67 64 63 64 64 59 59 57 56 54 51 51 57
41 43 44 45 47 50 52 54 55 57 59 62 66 69 72 75 77 79 80 81 80 78 75 73 69 67 66 64 64 64 64 64 62 61 61 56 58 60 61 58 54 50 47

GEFSSE_500_meanwind_006.txt.gz
Wind_Speed
21 20 22 23 22 19 18 19 21 20 21 20 19 18 17 18 18 18 17 17 17 17 16 16 17 16 16 16 17 17 17 17 18 18 17 16 16 15 13 13 12 12 12
24 23 24 24 22 21 20 19 21 22 22 21 21 20 19 19 19 19 19 19 19 19 19 19 19 19 18 18 19 19 19 20 20 21 20 19 18 16 15 15 14 14 14
25 25 25 23 20 19 19 19 20 21 21 21 21 22 22 22 22 21 21 21 22 21 21 21 21 21 21 21 22 22 22 22 23 24 23 21 19 17 16 16 15 15 15
24 25 23 19 17 17 19 20 21 22 21 21 22 24 24 24 24 24 24 23 23 23 23 23 24 24 24 25 26 26 26 26 26 27 26 23 19 19 18 18 17 17 16
20 20 19 17 16 17 18 19 20 21 21 22 24 26 27 26 25 25 25 26 26 26 26 26 28 29 28 29 30 30 29 29 30 30 29 27 23 22 19 19 19 18 17
13 13 14 15 15 14 14 15 16 18 20 23 25 27 28 29 28 27 28 29 30 31 31 31 32 34 34 35 36 36 34 34 35 35 33 30 28 26 23 22 20 19 19
11 11 12 12 12 11 12 14 15 17 20 24 26 28 29 30 30 30 31 32 33 34 32 31 31 34 34 35 36 36 38 40 41 40 38 34 33 30 27 25 22 23 23
13 13 12 11 11 11 13 15 17 18 21 23 25 28 29 32 32 31 32 32 32 32 31 30 28 29 29 27 27 27 28 31 35 41 41 38 37 34 31 29 27 28 28
12 13 12 12 12 14 16 18 20 21 22 24 25 27 27 27 27 28 29 30 31 32 32 31 29 30 29 30 29 30 30 29 29 30 33 36 38 34 33 32 32 32 31
14 12 13 14 14 16 18 20 22 25 26 27 27 28 29 30 29 28 29 30 31 31 31 30 30 30 31 32 32 34 34 34 35 35 32 31 31 29 31 33 33 33 34
17 16 18 16 14 16 18 20 22 25 27 28 28 29 29 30 29 29 28 28 28 28 29 30 30 30 31 31 32 33 34 35 36 37 37 35 33 31 32 34 34 35 37
19 21 20 20 20 19 21 22 24 26 28 30 30 30 30 30 29 28 26 26 26 27 29 30 32 33 33 33 33 34 35 35 35 36 36 36 37 37 37 38 38 38 39
20 23 22 21 22 22 24 25 27 28 31 33 33 33 31 31 30 29 28 28 28 30 31 33 34 35 36 37 37 37 38 39 39 39 38 38 39 39 40 42 42 43 43
24 25 24 23 25 27 28 28 30 31 32 34 35 35 34 34 33 33 33 33 33 32 32 33 34 35 37 39 40 41 42 43 43 42 42 41 41 42 43 44 45 47 48
26 27 26 26 28 30 31 31 32 34 35 35 36 36 36 36 36 35 36 36 36 35 35 36 38 39 41 43 44 45 46 47 47 47 46 47 46 47 47 47 47 47 48
27 28 27 27 28 29 30 30 31 34 36 38 39 39 38 38 38 37 36 36 38 40 41 42 44 46 48 48 48 49 49 49 51 53 54 54 55 54 54 53 53 53 53
31 30 30 28 27 29 31 32 32 34 35 37 38 38 39 40 40 38 37 38 39 42 44 47 50 53 54 54 54 54 54 54 55 56 56 56 57 58 58 58 58 58 59
35 34 32 26 25 29 33 35 36 36 37 38 36 36 39 42 43 42 40 41 43 46 49 51 53 55 56 55 55 55 57 60 62 62 62 61 61 61 62 62 62 60 59
34 36 29 20 27 31 34 35 34 34 36 37 36 37 42 46 47 44 43 45 48 51 52 54 55 57 57 57 58 60 62 64 65 66 67 68 69 70 70 70 71 70 67
38 38 34 41 42 40 40 39 37 36 37 37 38 43 46 45 45 45 46 48 52 53 53 55 57 58 60 62 64 66 67 68 69 71 72 73 74 76 77 78 78 78 77
43 46 49 51 49 48 46 44 42 42 43 44 45 49 49 46 45 47 48 51 55 56 57 59 61 63 65 67 68 70 70 72 73 74 76 77 78 77 78 78 78 78 79
44 48 51 52 52 52 50 48 47 48 48 50 51 51 49 47 48 53 55 57 58 59 61 64 66 68 69 70 73 76 77 76 76 77 77 76 74 72 70 70 71 72 74
43 47 50 52 53 52 52 51 51 52 53 54 53 53 50 49 58 61 59 60 62 63 66 69 72 74 74 75 78 81 83 82 79 76 73 69 66 63 62 62 63 64 64
43 45 47 48 50 51 51 52 53 54 55 56 56 57 58 64 67 67 69 71 73 74 75 77 79 80 81 82 82 84 84 81 76 71 63 60 59 59 60 61 61 62 61
42 43 44 46 47 48 48 49 50 52 53 55 56 58 62 66 70 73 76 79 81 83 85 86 86 86 86 85 84 80 75 68 62 59 54 51 52 53 54 56 58 59 59
40 41 42 43 43 43 44 46 48 50 52 55 58 61 65 68 72 76 80 83 86 88 90 90 89 86 83 79 72 65 58 53 50 49 48 46 45 45 45 47 49 51 53

GEFSSE_500_meanwind_012.txt.gz
Wind_Speed
21 22 21 20 19 19 18 17 16 18 20 21 22 22 21 20 19 19 19 19 18 18 18 18 17 18 18 19 19 20 20 19 19 20 21 21 21 21 20 20 20 19 18
24 23 22 21 20 20 19 18 17 17 18 20 21 22 21 20 19 19 19 20 20 19 19 20 20 21 21 22 23 23 23 22 22 22 23 24 24 24 23 23 22 21 21
23 22 20 19 18 18 17 17 16 16 17 19 20 20 20 20 19 19 19 20 21 21 22 23 23 24 24 25 26 26 27 26 25 25 26 27 27 26 25 25 25 24 23
18 17 16 15 15 14 14 15 15 15 17 19 20 20 21 21 21 21 21 22 23 24 25 25 26 27 28 29 29 30 30 30 29 29 29 29 30 29 28 28 28 27 25
14 14 13 12 12 11 12 13 14 14 15 17 19 20 20 21 22 24 24 25 26 27 28 28 29 30 31 33 34 35 35 34 34 34 33 33 34 34 32 32 32 31 29
13 13 13 12 11 10 11 12 13 13 13 14 16 18 19 21 23 25 27 28 29 30 31 32 32 34 36 37 38 39 39 39 38 39 39 39 39 39 37 35 34 35 33
14 14 13 13 11 10 10 11 11 12 12 13 14 16 18 20 23 25 26 28 28 30 32 33 34 36 37 37 38 37 36 34 33 35 36 38 40 41 41 39 37 36 35
15 14 12 11 11 10 10 11 11 13 15 16 17 17 18 20 21 21 21 22 24 25 27 29 30 31 31 31 31 32 31 28 25 26 27 27 28 30 33 37 39 40 39
16 14 11 9 10 10 11 12 14 15 17 19 19 19 19 19 20 20 21 21 22 23 24 24 25 25 26 26 26 26 26 25 24 24 25 26 27 28 28 29 31 32 36
15 13 10 10 11 11 12 14 15 17 19 21 22 22 23 23 22 22 22 22 22 22 22 23 24 24 24 24 25 26 26 26 26 26 26 27 28 28 28 27 28 29 29
16 13 12 13 13 13 13 15 17 20 22 24 25 26 27 27 26 26 25 24 23 23 23 24 25 25 25 26 26 27 28 28 28 28 29 29 30 30 29 29 28 28 29
14 14 15 14 15 15 15 17 19 22 24 26 26 26 27 28 28 28 27 26 26 25 26 26 27 28 29 29 28 29 29 29 29 30 31 32 32 33 33 33 31 30 30
14 16 17 17 16 16 17 19 21 23 25 25 25 25 25 26 27 27 27 27 27 26 27 28 29 30 31 31 31 31 31 32 33 33 34 36 37 38 38 38 38 37 35
17 18 21 22 18 16 16 17 19 21 23 25 25 26 26 27 27 28 27 26 27 28 30 30 31 32 33 33 34 34 34 36 37 38 39 40 41 42 43 43 43 43 42
23 24 23 23 19 17 17 17 18 21 24 27 29 29 29 29 29 29 29 28 29 31 33 35 36 36 36 37 38 38 39 40 42 43 43 43 44 45 46 46 46 46 46
28 27 29 27 26 26 23 21 21 24 27 30 32 31 31 30 30 31 32 32 33 35 37 39 40 41 42 43 43 44 45 46 46 47 47 47 47 47 47 47 48 48 48
30 30 32 33 33 33 30 26 28 30 30 31 32 32 33 34 35 37 37 38 40 42 43 45 46 46 47 48 48 49 50 51 51 51 51 51 51 51 51 51 51 51 51
32 34 35 34 35 35 32 32 33 33 33 33 33 34 35 36 38 39 40 42 44 45 47 49 50 50 49 50 52 53 54 54 55 56 56 57 57 58 59 59 58 57 56
34 36 37 37 37 37 36 35 34 34 34 34 35 36 37 38 39 40 42 43 44 46 48 49 49 50 51 52 54 55 57 57 58 59 60 63 64 65 65 65 65 65 63
36 37 38 39 39 38 37 37 36 36 35 35 35 35 36 38 40 41 43 45 47 49 50 51 51 54 57 58 60 61 62 63 64 65 67 69 71 72 73 73 72 72 71
35 37 38 39 39 40 40 39 39 38 38 37 38 38 39 40 42 45 47 49 51 53 54 55 58 61 64 67 69 70 69 69 70 72 74 75 77 79 79 80 79 78 77
35 37 38 39 40 40 41 41 41 41 41 41 41 42 43 45 47 49 51 54 55 58 60 62 64 67 71 74 76 77 76 73 72 74 76 77 78 80 81 81 81 80 78
34 37 38 38 39 40 41 42 43 43 44 44 46 47 49 51 52 54 56 57 59 62 65 67 69 72 74 75 77 78 77 74 71 69 70 71 73 74 75 75 75 74 73
34 36 36 37 39 41 43 44 45 46 47 48 50 52 54 55 57 59 60 61 64 65 66 67 67 68 68 68 69 69 68 65 61 57 58 60 61 61 61 61 61 60 60
35 35 36 38 41 44 46 47 48 50 51 52 54 56 57 59 61 62 63 65 64 64 62 61 61 60 59 58 56 55 55 54 53 52 52 51 50 48 47 46 46 46 46
37 37 38 41 44 47 49 50 52 53 54 55 57 59 60 61 62 63 64 63 62 58 56 55 55 54 53 53 52 51 51 51 51 50 49 47 45 41 40 39 39 39 39

GEFSSE_500_meanwind_018.txt.gz
Wind_Speed
18 18 17 17 17 17 16 15 13 12 11 11 11 11 12 12 12 13 13 13 13 14 14 15 16 17 18 18 19 19 20 20 20 21 22 23 23 23 24 24 23 23 22
17 16 15 14 14 13 12 12 11 11 11 11 12 12 12 12 13 14 14 15 15 16 16 17 18 18 19 20 21 22 23 24 24 24 25 26 26 27 28 27 27 26 26
14 12 11 10 9 8 8 8 8 9 10 11 12 13 13 14 14 15 16 17 17 18 19 19 20 20 21 22 23 24 25 26 27 28 28 29 30 30 31 31 30 29 29
10 9 8 7 6 5 5 5 6 7 9 10 12 13 14 15 16 16 17 18 19 20 21 22 23 24 24 25 25 26 27 29 30 31 31 32 33 34 34 34 34 33 32
9 8 7 6 5 4 4 4 5 6 8 9 11 12 12 13 15 16 17 19 20 21 23 24 26 27 27 28 28 29 30 31 32 33 35 36 37 38 38 37 37 37 36
10 9 8 7 6 5 5 5 5 6 7 7 8 9 10 11 13 15 16 18 19 21 23 24 26 27 28 29 29 30 31 32 34 35 36 37 37 37 38 38 38 39 39
12 11 10 9 8 7 6 5 5 5 5 6 7 8 9 10 12 14 15 16 17 19 20 22 23 25 26 27 28 28 29 31 32 33 33 33 33 33 33 33 34 34 35
14 13 12 10 8 8 7 6 6 6 7 7 8 9 10 11 12 13 14 15 16 18 19 21 23 24 26 27 27 28 28 29 30 30 30 30 31 31 31 31 30 30 30
15 12 12 11 10 10 9 8 8 9 10 11 12 13 14 14 15 16 16 16 17 18 19 20 22 23 25 26 27 27 27 27 27 27 28 28 29 30 31 31 31 30 30
14 12 12 11 10 10 10 10 11 12 13 14 15 16 17 18 19 19 19 19 19 19 20 21 22 23 25 26 27 28 28 28 29 29 29 30 30 31 31 31 31 31 30
14 12 12 11 11 10 11 12 13 14 15 16 17 17 18 18 19 20 21 21 21 21 21 23 24 25 27 28 29 29 30 30 31 32 32 32 32 32 32 32 32 32 31
15 14 13 12 12 11 11 12 13 14 15 17 18 18 18 19 20 21 22 23 23 23 23 24 24 25 26 28 29 30 31 32 33 34 35 35 36 35 35 35 35 35 35
15 15 15 13 13 14 13 13 13 15 16 17 18 19 20 21 22 23 24 24 24 25 25 24 25 25 26 28 29 30 32 33 35 37 38 39 40 40 40 40 40 40 40
17 16 16 15 14 14 14 14 15 15 17 18 20 21 22 23 24 25 25 26 26 26 27 28 28 29 30 31 32 34 35 36 38 40 42 43 44 45 45 45 45 45 45
18 18 17 16 16 15 16 16 16 17 18 20 21 23 25 25 25 25 26 27 28 29 30 31 32 33 33 35 37 38 39 40 41 43 45 46 48 49 49 49 49 49 49
20 19 19 18 17 17 17 17 17 19 21 21 22 23 24 25 25 26 27 28 30 30 32 33 34 35 36 37 39 41 42 44 45 46 47 48 50 51 53 54 54 54 53
22 22 21 20 19 19 18 18 17 18 20 20 21 22 23 24 26 27 29 30 31 33 34 36 37 39 40 41 43 44 45 47 48 49 50 51 52 53 55 56 57 57 57
24 23 22 21 21 21 20 19 19 19 20 21 22 23 25 27 28 30 32 33 35 36 38 40 41 43 45 46 48 49 50 51 51 53 54 55 57 58 58 59 60 60 60
26 24 23 23 23 23 22 22 22 22 24 25 26 27 28 30 32 33 35 37 39 41 42 44 45 47 48 50 51 53 54 55 56 57 58 60 61 63 64 65 66 66 66
26 25 24 25 26 26 25 25 26 27 29 30 31 31 32 34 35 38 40 42 44 46 47 49 50 52 53 54 55 55 56 57 59 59 59 61 63 64 66 67 68 69 70
26 26 27 28 29 29 29 30 31 33 34 35 36 36 37 38 40 42 44 47 48 50 52 53 54 55 56 57 57 57 57 58 58 58 58 58 58 59 61 63 65 66 68
28 28 30 32 33 34 35 35 36 38 39 40 40 41 41 43 45 48 50 52 53 55 56 56 57 58 59 58 58 57 56 55 55 54 53 53 54 55 56 57 58 60 62
31 32 34 37 38 40 41 41 41 42 42 43 44 45 46 48 50 53 56 57 58 58 59 60 60 61 60 58 57 55 53 50 47 45 45 47 49 51 52 54 55 56 56
34 35 37 40 42 44 45 45 44 44 45 46 47 48 49 52 55 58 61 61 61 61 61 62 63 62 59 56 54 52 49 46 45 44 43 45 47 49 50 51 52 53 53
36 38 40 43 45 46 47 47 46 46 48 48 48 50 52 55 59 63 65 64 63 63 63 63 61 57 53 50 48 46 44 44 45 47 47 47 49 52 52 52 52 51 51
38 40 43 45 47 49 48 48 47 47 49 49 50 52 55 59 64 67 66 64 63 63 61 57 53 48 44 42 42 43 43 45 47 50 51 51 52 53 55 54 53 51 49

GEFSSE_500_meanwind_024.txt.gz
Wind_Speed
12 11 12 12 11 12 13 14 15 16 16 15 14 13 12 11 10 10 10 11 11 12 12 12 13 13 14 14 15 16 17 18 19 20 20 21 22 22 23 23 23 22 22
9 8 8 8 8 9 10 11 12 13 14 14 13 12 12 11 10 10 10 11 11 12 12 13 13 14 14 16 17 18 19 20 22 23 23 24 24 25 25 25 25 26 25
6 5 6 6 6 6 6 7 9 10 11 11 11 11 11 11 10 10 11 11 12 12 13 14 14 15 16 17 18 19 20 22 23 24 25 26 26 26 27 27 27 28 28
6 6 6 5 4 4 4 5 6 7 9 9 9 10 10 10 10 10 11 11 12 13 14 15 15 16 17 18 20 21 22 23 24 25 26 27 28 28 28 28 29 29 31
6 6 6 5 4 3 3 4 4 6 7 8 8 8 9 9 9 10 10 11 12 13 14 15 16 17 18 19 21 22 23 24 25 26 27 28 29 29 30 30 30 30 31
6 6 5 4 3 1 1 2 3 4 5 6 6 6 6 7 8 9 10 11 12 13 14 15 16 17 18 19 20 21 23 24 25 26 27 28 29 29 29 29 29 29 29
6 6 5 3 2 1 1 2 3 3 4 5 5 6 6 7 8 10 11 12 13 14 15 16 17 18 19 20 21 22 23 24 25 26 26 27 27 28 28 28 28 28 28
5 4 3 2 2 1 2 3 3 4 4 5 6 7 8 9 10 11 13 14 15 16 16 17 18 18 20 21 23 24 24 25 27 28 28 28 28 27 27 27 27 27 28
5 4 3 2 2 3 3 4 5 6 7 8 9 10 10 11 12 13 14 15 15 16 17 17 18 20 21 22 24 25 26 27 29 29 30 30 30 29 29 29 29 29 29
6 5 3 3 4 5 5 6 8 8 9 10 11 12 12 13 14 14 14 15 15 16 17 18 19 21 22 24 25 27 28 29 31 31 32 32 33 33 32 32 32 31 31
8 7 5 5 5 6 7 8 9 10 11 12 13 13 14 14 14 14 15 16 17 18 18 19 20 21 23 24 25 27 28 30 32 33 34 34 35 35 35 35 35 34 34
10 9 7 7 7 7 8 8 10 11 12 13 14 15 15 15 15 16 17 18 18 19 19 19 20 21 22 22 24 25 27 29 31 32 33 34 35 37 38 38 38 38 38
11 10 10 9 9 9 10 10 11 12 13 14 15 15 16 16 16 18 18 18 18 18 18 19 20 21 22 23 24 26 27 29 31 33 33 34 36 38 39 40 41 42 42
12 11 11 11 11 11 11 11 11 12 13 14 15 15 16 15 16 17 17 17 17 18 19 20 21 22 24 25 27 28 30 31 33 35 36 37 39 41 42 42 43 44 44
14 13 13 13 12 12 11 11 11 11 12 13 14 14 14 14 15 15 15 16 17 18 20 22 24 26 28 30 31 33 35 37 38 40 42 42 44 45 46 46 47 47 48
16 15 15 14 14 13 11 10 10 10 11 12 13 13 13 13 14 14 15 17 18 20 22 24 26 29 31 33 36 38 40 42 44 46 48 49 49 50 50 51 51 51 51
18 17 17 17 16 14 12 11 10 10 11 12 13 14 15 15 15 16 16 17 19 20 23 25 28 31 34 37 39 42 44 46 49 50 52 55 55 56 55 56 56 55 55
21 20 20 19 18 17 15 13 12 12 13 15 17 18 19 19 19 20 20 21 23 24 26 29 32 35 38 40 43 45 47 50 52 54 56 58 59 60 60 60 59 59 58
23 23 22 22 21 20 18 16 16 15 16 19 20 22 23 24 25 25 25 27 28 30 32 35 38 40 43 45 47 48 50 53 55 57 60 61 63 63 63 64 62 61 61
27 26 25 25 25 24 22 20 19 19 20 22 23 25 26 28 29 30 31 32 34 36 38 40 43 45 47 49 50 52 54 56 58 60 62 64 66 66 66 65 63 62 61
30 30 29 30 30 29 27 25 23 22 23 25 27 28 30 31 32 33 35 37 38 40 42 45 47 49 51 52 53 55 57 59 61 63 65 66 67 66 65 63 61 59 57
34 34 34 34 35 34 31 29 27 26 27 28 30 32 33 35 36 37 39 41 42 44 46 48 50 52 54 55 57 58 59 60 62 63 63 62 62 61 58 56 53 52 51
36 37 37 37 38 37 35 34 32 32 33 32 33 35 36 38 39 41 43 45 47 49 50 51 52 54 57 58 59 59 59 59 60 59 58 54 51 49 49 48 48 47 46
38 39 39 39 39 40 39 38 36 37 37 38 39 41 42 43 44 46 47 48 49 51 53 54 55 57 58 59 60 60 59 58 56 54 51 48 44 43 44 45 45 46 47
40 41 42 42 42 42 42 40 40 41 41 42 44 46 48 49 50 50 51 52 53 54 54 56 57 58 59 59 60 60 59 57 54 52 48 46 43 43 43 45 47 48 50
42 44 45 44 44 44 44 43 43 44 44 47 49 50 52 52 53 53 53 54 54 54 55 57 58 59 59 59 59 59 58 56 54 51 49 48 47 46 47 49 51 53 54

GEFSSE_500_meanwind_030.txt.gz
Wind_Speed
13 14 15 15 16 17 17 18 18 19 20 19 18 18 18 18 17 16 15 15 14 14 14 14 14 14 14 15 15 16 16 16 16 17 17 18 19 19 18 18 18 19 19
13 12 13 13 13 14 14 15 15 16 17 17 17 18 18 18 17 16 15 15 14 14 14 15 15 15 15 16 17 17 18 18 19 19 20 21 21 21 21 21 21 21 21
10 9 9 10 10 11 11 11 11 11 12 13 14 15 16 16 16 16 15 15 14 14 14 15 15 15 16 16 17 18 19 20 21 22 22 23 23 24 24 23 23 24 24
8 7 8 8 8 7 8 8 8 8 9 10 11 12 13 14 14 14 14 14 14 14 15 15 15 16 16 17 17 18 19 21 22 23 23 23 23 24 25 25 25 26 26
6 7 7 7 7 7 7 8 8 8 8 8 9 10 11 11 12 12 12 12 12 13 13 14 14 15 16 16 17 18 19 20 21 22 23 22 22 25 23 23 24 25 26
6 7 7 7 7 7 7 7 7 7 8 8 8 9 9 9 9 9 10 10 11 11 12 13 13 14 15 16 17 18 18 19 20 20 21 19 21 23 22 22 22 23 24
6 7 7 7 7 6 6 6 6 7 8 8 9 9 9 9 9 10 10 10 11 12 12 13 14 15 15 16 17 17 18 19 20 20 20 19 21 23 22 22 22 22 23
6 7 7 7 7 6 6 6 7 7 8 9 10 10 11 11 11 11 12 12 13 13 14 14 15 16 17 17 18 19 19 20 21 22 21 21 23 23 23 23 23 23 24
6 7 7 7 7 7 8 8 8 9 10 10 11 12 12 13 13 13 14 14 14 14 15 15 16 17 17 18 19 20 20 22 23 23 21 21 24 24 24 24 25 25 25
7 7 7 7 8 8 9 9 10 10 11 12 12 13 13 14 14 14 14 14 14 14 15 15 16 17 18 18 19 20 21 22 23 23 19 21 23 24 25 25 26 26 27
8 7 7 8 8 9 10 10 10 11 11 12 12 13 13 13 13 13 13 13 13 14 15 15 16 16 16 17 18 18 19 20 22 22 20 21 23 24 25 26 27 28 29
11 9 8 9 10 10 11 12 12 12 12 13 13 13 13 13 13 13 13 14 14 14 14 14 14 14 14 15 16 17 18 21 23 23 21 23 25 27 28 29 30 32 33
13 12 12 12 12 12 13 14 14 14 14 13 13 13 13 13 12 12 13 13 13 13 14 14 14 14 15 15 17 18 20 22 25 27 25 25 28 30 32 34 35 36 37
14 15 15 15 16 16 16 16 16 16 15 14 14 14 14 14 13 13 13 14 14 14 15 15 16 16 17 19 19 21 22 24 27 29 29 29 30 33 35 37 39 40 41
16 17 18 18 18 19 19 18 18 18 17 16 16 15 15 14 14 15 15 16 16 16 17 18 19 19 20 21 22 24 25 27 29 32 32 33 34 35 38 40 42 44 45
18 19 20 20 21 21 21 21 21 20 20 19 18 18 18 16 17 17 17 18 19 20 21 22 22 23 24 25 27 29 30 32 33 36 37 38 39 41 42 44 46 48 49
20 21 23 22 23 23 24 24 24 24 24 23 22 21 21 20 20 21 21 21 22 23 24 26 28 28 30 31 33 35 37 38 39 41 43 45 45 46 47 48 50 52 54
22 22 25 25 25 26 27 28 28 28 28 28 27 26 26 25 24 24 24 25 27 27 28 30 32 33 36 37 39 41 43 44 45 47 48 50 52 53 53 54 55 56 58
25 25 27 29 28 30 30 31 32 33 33 33 32 31 30 29 29 28 27 28 30 31 32 34 36 38 40 42 44 46 48 50 51 53 54 56 57 58 59 60 60 61 62
29 28 29 32 31 32 34 35 36 37 38 38 37 38 35 33 32 31 30 31 33 34 36 37 39 42 44 46 48 50 52 54 56 57 59 60 62 63 64 64 65 65 65
32 30 31 34 34 35 36 38 40 41 42 42 40 40 38 35 34 34 33 34 36 39 40 41 43 45 48 50 51 53 54 56 58 60 62 63 65 66 66 67 67 67 66
34 34 34 36 37 38 39 41 43 44 45 44 43 42 40 36 35 35 37 38 39 41 43 44 46 48 50 53 55 56 56 58 60 62 63 65 66 67 67 67 67 66 64
41 39 38 38 39 40 41 43 45 47 47 46 45 43 41 40 38 38 39 41 42 44 45 47 48 50 52 54 56 57 58 58 59 61 64 66 67 67 67 67 66 66 64
43 41 41 40 39 40 42 45 46 47 48 48 47 45 43 42 41 40 41 42 45 46 46 47 48 51 52 54 56 58 59 60 60 61 63 65 65 65 66 66 65 63 61
42 42 41 40 40 42 44 45 46 47 48 47 47 46 45 44 43 42 42 44 45 46 47 49 51 53 55 56 58 60 61 62 63 63 63 64 65 65 66 66 64 61 59
40 40 40 40 41 43 44 46 46 47 48 47 47 47 46 46 45 44 45 46 48 49 50 51 53 55 57 59 60 61 62 63 64 64 64 65 66 67 67 66 64 61 59

GEFSSE_500_meanwind_036.txt.gz
Wind_Speed
11 11 11 12 12 14 15 16 17 19 20 20 20 20 20 19 18 18 18 18 18 18 18 17 17 17 16 16 16 16 16 16 16 16 17 17 17 18 18 18 18 19 19
10 10 10 10 10 11 12 13 14 16 18 19 20 21 21 20 20 20 20 20 20 19 19 19 19 19 19 19 18 18 18 18 18 18 18 19 19 19 20 20 20 20 20
9 8 7 7 8 8 8 9 10 12 14 15 17 19 19 20 20 20 20 20 20 20 20 20 20 20 20 20 20 20 19 19 18 18 19 19 20 20 20 21 21 21 22
7 6 6 6 6 6 6 6 7 8 9 11 13 15 16 17 18 19 19 20 20 20 21 21 20 20 20 20 20 20 20 19 18 18 19 20 20 20 21 21 21 20 21
5 4 4 5 5 5 5 5 6 7 7 8 9 11 13 15 16 17 18 18 19 20 20 20 20 19 19 19 20 19 19 18 17 17 18 19 19 19 19 19 20 19 20
4 4 4 4 4 4 4 4 5 5 6 7 8 9 11 12 14 15 16 17 17 18 18 18 17 17 18 18 19 19 19 17 15 16 17 18 18 18 17 17 16 18 19
5 5 4 4 4 4 4 4 5 5 6 6 7 8 9 10 12 13 14 15 15 16 16 17 17 17 17 18 18 19 18 17 15 15 16 18 18 18 18 17 18 19 19
5 5 4 4 4 4 5 5 6 6 6 7 8 9 10 11 12 13 14 15 16 16 17 17 18 18 18 18 19 20 19 18 16 16 18 19 20 19 19 19 19 19 19
7 6 5 4 4 5 5 6 6 6 7 8 9 10 11 12 13 14 15 16 17 17 18 18 18 18 18 18 19 20 21 19 17 18 19 20 20 20 20 19 19 19 19
7 6 5 5 5 5 5 6 6 7 7 8 9 10 12 13 13 14 15 16 17 17 18 18 18 18 18 19 20 21 21 20 18 19 20 20 20 21 21 21 20 20 20
8 7 6 6 5 5 6 6 7 7 8 9 9 10 12 12 13 14 15 16 16 17 17 17 18 18 19 20 21 21 22 21 19 19 20 21 22 22 23 23 23 23 23
9 8 7 7 6 6 6 7 7 8 9 9 10 10 11 12 12 13 14 14 15 16 16 17 17 18 19 20 20 21 22 21 20 20 21 22 23 24 25 26 26 27 27
10 10 9 8 8 7 7 8 8 9 10 10 10 11 11 12 12 13 13 14 15 15 16 16 17 18 19 20 20 21 22 22 22 22 23 24 25 26 27 29 29 29 30
10 11 10 10 10 9 9 9 9 10 10 10 11 12 12 13 14 15 15 15 16 17 17 17 17 19 20 21 22 23 24 25 26 26 27 28 29 30 30 31 32 33 33
11 12 11 12 12 12 12 11 11 12 12 13 13 13 14 16 17 18 18 18 18 19 20 20 20 21 22 24 25 26 28 29 30 32 32 33 34 34 35 36 37 38 39
15 13 13 14 15 14 13 14 14 14 15 16 16 17 17 17 19 20 21 22 22 23 24 24 24 25 26 27 29 30 32 34 36 37 38 39 40 41 42 43 44 45 45
20 17 15 15 17 17 16 16 16 17 17 19 20 20 21 21 22 23 24 25 26 26 27 28 28 29 30 31 32 34 35 38 40 41 43 44 45 46 47 48 49 50 51
24 21 19 20 21 22 23 20 19 20 21 22 23 24 25 25 25 26 28 28 29 29 30 31 32 33 34 35 36 38 39 41 43 45 46 48 49 50 51 51 52 54 55
28 26 25 26 24 26 28 25 25 25 25 26 27 28 29 30 30 30 31 32 32 32 32 33 35 37 38 39 40 42 43 44 46 47 49 50 51 52 54 55 56 57 58
31 29 28 28 29 31 32 32 32 30 29 30 31 31 33 33 34 35 35 34 34 34 34 34 36 39 41 42 43 44 45 46 48 49 50 51 53 54 56 57 58 59 60
33 33 33 32 33 34 36 37 37 36 34 33 34 35 36 37 37 39 39 37 37 35 35 36 37 40 42 44 45 46 47 48 50 51 51 53 55 56 58 59 60 62 63
37 35 35 36 37 36 36 39 40 39 37 37 37 37 38 39 40 40 40 39 37 37 37 37 39 41 44 45 46 47 47 49 51 52 54 56 58 59 60 61 62 63 64
37 35 36 38 39 39 40 42 41 41 40 38 38 38 39 41 41 42 42 41 39 38 39 40 42 43 45 46 48 49 49 50 52 55 58 59 60 61 62 63 63 64 65
36 36 38 40 41 43 44 43 44 41 39 39 39 40 41 42 43 43 43 41 41 41 42 43 44 45 46 48 50 51 53 54 55 57 59 61 62 62 62 63 63 64 65
36 37 39 41 44 45 44 45 43 40 39 39 40 41 41 43 44 44 44 44 44 45 45 46 47 47 48 50 52 54 57 59 60 60 59 60 61 62 63 63 64 65 67
36 39 42 44 46 46 45 44 43 41 40 40 41 42 43 44 45 45 46 46 47 47 47 48 48 49 51 53 55 58 60 61 62 61 60 60 61 62 63 65 66 68 70

GEFSSE_500_meanwind_042.txt.gz
Wind_Speed
8 9 9 9 9 9 10 10 10 10 11 11 12 13 13 14 14 14 14 14 14 15 15 15 16 17 17 16 16 16 16 16 16 16 16 16 16 15 15 15 15 15 16
7 8 8 8 8 8 7 7 8 8 9 9 10 11 12 13 14 15 15 15 16 16 17 17 17 18 18 17 18 17 17 17 17 17 17 17 17 17 16 16 17 17 17
5 6 7 7 7 6 6 5 5 5 6 7 7 8 9 10 11 13 14 15 15 16 17 17 18 18 18 18 18 18 17 17 17 18 18 18 18 17 17 17 17 17 18
4 5 5 6 6 5 4 3 3 3 4 4 5 6 7 7 9 10 11 13 14 15 16 17 17 17 17 17 17 17 17 18 18 18 18 18 18 18 17 17 17 17 17
4 4 4 5 4 4 3 3 3 3 3 3 4 4 5 6 8 9 10 12 13 14 15 16 16 16 16 16 16 16 16 17 17 18 18 18 18 17 17 16 16 16 16
4 4 4 4 3 3 3 3 3 3 3 3 4 4 5 6 7 8 9 10 12 13 14 15 16 15 15 15 14 15 15 16 16 17 18 17 17 17 16 16 16 16 17
6 5 5 4 4 3 3 3 2 2 3 3 4 4 5 6 7 8 9 11 12 13 14 15 16 16 16 15 15 15 15 16 16 17 17 18 18 17 17 17 17 17 18
7 7 6 6 5 5 4 4 3 3 3 3 4 4 5 6 7 9 10 11 13 14 15 16 17 17 17 16 16 15 15 16 16 17 18 18 19 19 19 18 19 19 19
8 8 8 8 7 6 6 5 4 4 4 4 4 5 6 6 8 9 10 12 13 14 15 16 17 18 18 17 17 16 16 17 17 18 18 19 19 19 19 19 19 19 20
9 10 10 10 9 8 8 7 6 5 5 5 5 6 6 7 8 9 10 11 12 13 14 15 16 17 17 17 17 17 17 17 18 18 19 19 19 19 20 20 20 21 21
11 11 12 11 11 10 10 9 8 7 6 6 6 6 6 7 7 8 9 10 11 12 13 15 15 16 16 16 17 17 18 18 19 19 19 19 20 20 21 22 22 23 23
10 12 13 12 12 12 11 10 10 9 8 7 7 7 7 7 7 8 9 10 11 12 13 14 15 16 16 16 17 17 18 19 19 20 20 21 21 22 23 24 25 25 26
10 11 12 13 13 12 12 11 11 11 10 9 9 9 9 9 9 9 10 11 12 13 14 15 16 17 18 18 18 19 19 19 20 21 21 22 23 24 25 26 27 28 30
9 11 12 13 15 14 14 13 12 12 12 12 11 11 10 11 11 11 12 13 13 14 15 17 18 20 21 21 22 22 22 22 23 23 24 25 26 27 28 30 31 32 33
9 11 13 15 16 17 16 16 15 15 15 15 14 14 13 13 14 14 14 15 16 17 17 19 20 22 23 25 26 26 26 26 26 27 28 29 30 31 32 34 35 36 37
11 12 14 16 18 19 19 19 19 18 18 18 18 18 17 17 17 17 17 17 18 19 21 22 23 25 25 27 28 29 30 31 31 32 33 33 34 35 36 37 38 39 40
14 15 15 18 19 21 21 22 22 22 21 22 22 22 22 22 21 21 21 20 21 22 23 24 26 28 29 29 30 31 33 34 35 36 37 38 39 40 40 41 42 42 43
15 16 17 20 21 22 24 25 26 26 26 26 26 26 27 28 27 25 25 24 24 25 25 27 29 31 31 31 32 34 36 37 38 39 40 41 42 43 44 44 45 45 46
17 18 20 22 23 25 27 28 29 30 29 29 30 30 31 31 30 29 28 27 28 28 28 29 30 31 32 33 35 36 38 39 40 42 43 44 45 46 47 48 48 48 49
19 20 22 24 25 27 29 30 32 32 32 32 33 32 32 32 31 30 30 29 29 29 30 31 32 32 33 35 36 38 39 40 41 43 44 45 47 48 50 51 51 52 52
22 23 24 25 27 29 31 33 35 36 35 36 36 36 34 31 31 30 30 30 30 31 32 32 32 33 33 34 36 38 40 42 43 44 45 47 49 50 51 52 53 54 56
24 24 25 27 28 30 33 36 39 40 39 40 39 37 33 30 30 29 29 29 30 31 32 33 34 34 35 37 39 40 41 43 45 46 47 49 51 52 54 55 56 58 59
25 26 27 28 31 34 37 39 41 42 42 43 39 36 33 30 28 27 27 29 30 32 34 35 36 37 39 40 41 43 44 45 46 47 49 51 53 55 57 58 60 61 62
27 28 30 32 35 37 39 41 43 44 46 43 38 36 33 30 29 28 29 30 32 34 35 37 39 41 42 43 45 46 47 48 49 50 51 53 56 58 60 62 63 64 65
31 32 35 37 38 39 41 43 45 47 48 43 39 35 33 32 30 30 31 32 34 36 38 41 43 44 46 47 48 49 51 52 53 54 55 57 59 61 63 65 66 67 68
34 36 38 40 40 41 43 45 46 46 44 42 39 36 34 32 32 32 34 36 38 40 43 45 47 49 50 51 52 54 55 57 58 59 60 61 62 63 65 67 68 69 70

GEFSSE_500_meanwind_048.txt.gz
Wind_Speed
5 5 5 6 6 6 7 8 10 11 11 11 11 10 10 10 10 9 9 9 8 7 7 6 6 7 7 8 9 9 10 10 10 11 11 12 13 13 13 13 14 14 14
4 4 4 4 5 5 6 7 8 9 9 10 9 9 9 9 9 9 9 9 8 8 8 8 8 8 8 9 9 10 11 11 11 12 12 13 13 14 14 15 15 15 15
2 2 3 3 3 3 4 5 6 6 7 7 7 7 7 7 7 7 8 7 7 8 8 8 8 8 9 9 10 11 11 12 12 13 13 14 14 15 15 15 16 16 16
2 1 2 1 1 2 2 3 4 4 5 5 5 5 5 5 6 6 7 7 7 7 7 7 8 8 9 10 11 11 12 12 13 14 14 14 15 15 15 15 16 16 16
3 3 3 3 2 1 1 2 3 3 3 4 4 5 5 5 6 6 7 7 7 7 7 7 8 8 9 10 11 12 12 13 13 14 15 15 15 15 15 15 15 15 15
5 5 4 4 3 2 1 1 2 2 3 4 4 5 5 6 6 7 7 7 7 7 7 8 8 9 10 10 11 12 12 13 13 14 14 15 15 15 15 15 15 15 14
7 7 6 5 4 3 2 1 1 2 2 3 4 5 6 6 7 8 8 8 8 8 9 9 10 10 11 11 12 12 13 13 13 14 15 15 15 15 15 15 15 15 15
8 8 7 6 6 4 3 3 2 2 2 3 4 5 6 7 8 8 9 9 9 10 10 10 11 11 12 12 13 13 13 14 14 14 15 15 15 15 15 15 15 15 15
8 9 9 8 7 6 5 4 4 3 4 4 5 5 6 7 8 9 10 10 10 11 11 11 11 12 12 13 13 13 14 14 14 15 15 15 15 15 15 15 15 15 15
9 9 9 8 8 7 6 6 5 5 5 5 6 7 7 8 9 10 11 11 11 11 12 12 12 13 13 14 14 14 14 14 15 15 16 16 16 16 15 15 15 16 16
8 8 8 7 7 7 7 7 6 6 6 7 7 8 9 9 10 11 12 12 12 12 12 13 13 13 13 14 14 15 15 15 16 16 17 17 17 17 17 17 17 17 18
6 6 6 5 6 6 6 7 7 8 8 8 9 10 11 11 12 13 13 14 14 14 14 14 14 14 15 15 15 16 16 17 17 18 18 19 19 19 19 19 19 20 20
3 3 4 4 5 6 7 8 9 9 10 10 11 12 13 14 14 15 16 16 16 16 16 16 16 17 17 17 17 17 18 19 20 20 21 21 21 22 22 23 23 23 24
0 1 3 5 6 8 9 9 11 11 11 12 13 14 16 16 17 18 18 19 19 19 19 19 19 19 19 20 20 20 20 21 21 22 23 23 24 25 25 26 27 27 28
3 4 5 7 8 10 11 11 13 13 14 15 16 17 18 19 20 21 22 22 22 22 22 22 22 22 22 22 22 23 24 24 24 25 25 26 27 28 29 30 30 31 32
7 7 8 9 10 11 12 13 15 15 17 18 19 21 22 23 24 25 27 27 27 26 25 25 25 25 25 25 25 25 26 26 27 27 28 28 29 30 31 33 34 35 36
10 10 11 11 12 13 14 15 17 18 19 21 23 25 26 27 28 29 31 31 32 31 30 29 29 29 29 29 28 28 28 28 28 29 30 31 32 32 34 35 36 38 39
14 13 14 14 14 15 17 18 19 20 22 24 26 27 29 31 33 34 35 36 36 35 35 33 32 32 32 31 30 29 29 29 29 30 31 33 34 36 37 38 39 40 42
17 17 17 17 17 19 20 21 22 24 26 28 30 32 32 33 35 36 37 38 38 38 38 37 36 34 33 33 32 31 30 30 31 31 33 34 36 38 40 40 42 43 44
21 21 21 21 21 22 23 24 25 28 30 33 35 37 36 36 37 38 39 39 40 40 39 38 37 35 34 34 33 32 31 31 31 32 34 35 37 39 41 43 44 45 46
25 25 25 26 25 26 26 27 29 31 34 36 38 38 38 37 39 40 39 38 38 38 37 37 37 35 32 32 32 31 30 31 33 34 35 38 39 41 42 43 45 47 48
28 28 28 29 29 29 30 30 32 34 36 39 40 40 40 40 40 37 34 33 33 33 34 34 33 32 31 30 31 32 32 33 34 36 38 40 42 44 45 46 48 50 51
30 30 31 31 31 31 32 33 34 37 39 41 41 42 43 41 37 35 31 29 27 27 28 28 29 30 30 30 32 33 35 38 39 40 41 44 46 48 50 51 52 54 55
31 31 32 32 33 33 34 35 37 39 40 42 43 42 42 42 39 34 32 30 28 27 28 28 29 30 31 33 35 37 40 42 45 46 47 48 50 52 54 56 57 59 60
31 32 33 34 35 36 37 38 39 41 42 43 42 42 42 41 39 34 32 32 32 31 32 32 32 33 35 38 39 41 44 47 49 51 53 55 56 57 58 60 61 63 64
32 33 34 36 37 38 39 40 41 42 42 42 42 42 42 42 39 36 37 36 35 35 35 36 38 39 41 43 45 47 49 51 54 55 57 58 60 61 62 63 65 66 68

GEFSSE_500_meanwind_054.txt.gz
Wind_Speed
9 11 11 11 10 10 10 11 11 11 11 12 12 13 13 13 13 13 14 14 14 14 14 13 13 12 12 11 11 10 9 9 9 9 9 10 10 10 11 11 11 11 11
9 10 10 10 10 10 10 10 10 10 10 11 12 13 13 13 14 14 14 14 14 14 14 14 14 13 13 13 12 11 11 11 11 11 11 11 12 12 12 12 12 13 13
8 8 10 10 10 9 9 9 9 9 9 9 10 11 11 12 12 12 13 13 13 13 13 13 13 13 13 12 12 11 11 12 12 12 12 12 13 13 13 13 13 14 14
7 7 8 8 8 8 7 7 7 7 6 7 7 8 9 9 10 10 11 11 11 11 11 11 11 12 11 11 11 11 12 12 12 12 12 13 13 13 13 13 13 13 13
6 6 7 7 6 6 5 5 5 4 4 4 5 6 7 7 7 8 8 9 9 9 10 10 11 11 11 11 11 11 11 11 11 12 12 12 13 13 13 13 12 12 12
6 6 6 5 5 4 3 3 2 2 3 4 4 4 5 5 6 6 7 8 8 9 10 10 11 11 11 11 11 12 12 12 12 12 12 12 13 13 12 12 12 12 12
6 6 6 5 5 4 3 1 1 1 2 3 3 4 4 5 6 6 7 8 8 9 10 11 11 12 12 12 12 12 13 13 13 13 12 12 13 13 13 12 12 12 12
6 6 6 6 6 5 4 3 1 1 1 2 3 3 4 5 5 6 7 8 9 10 10 11 12 12 12 13 13 13 14 14 14 14 13 13 13 13 13 13 13 13 13
7 7 7 6 6 5 4 3 2 2 1 2 2 3 4 5 6 6 7 8 9 10 11 12 13 13 13 13 14 14 14 15 15 15 13 14 14 14 14 13 13 14 14
7 6 6 6 5 5 4 3 2 2 2 2 3 4 5 6 6 7 8 9 10 11 12 13 14 14 14 14 14 15 15 16 16 15 13 14 15 14 14 14 14 15 15
7 6 6 5 4 4 3 2 2 2 3 4 5 6 6 8 8 9 10 11 12 13 14 15 15 16 15 15 15 16 16 17 17 16 15 15 16 16 16 16 16 16 17
7 6 5 4 2 1 1 2 4 5 5 6 7 8 9 10 11 12 13 14 15 16 16 17 17 17 17 17 17 17 18 20 19 17 17 18 18 18 18 18 18 18 19
6 5 4 2 2 3 4 6 6 7 7 8 9 10 12 13 13 14 16 17 18 19 20 20 20 20 20 20 20 20 20 22 23 20 19 20 20 20 20 20 20 21 21
7 5 5 4 5 6 8 9 9 10 9 10 12 13 15 16 17 18 20 21 21 23 24 24 24 23 23 24 23 23 23 24 26 23 21 22 22 23 23 23 23 23 24
8 7 7 8 9 10 11 12 12 13 13 14 15 17 18 20 21 22 24 24 25 26 26 28 28 28 27 28 28 28 27 27 29 27 24 24 25 25 25 25 26 26 27
11 10 10 11 12 13 14 15 16 16 17 17 18 20 22 23 23 25 26 27 28 29 31 31 31 31 32 32 32 31 31 30 30 30 28 27 27 28 28 28 28 29 29
12 13 13 14 14 15 17 18 19 19 20 20 20 22 24 25 25 26 27 29 31 31 33 33 32 32 33 34 34 34 33 32 31 32 32 31 29 28 29 29 30 31 32
15 15 16 17 17 18 19 20 21 22 23 23 23 25 26 27 27 28 30 32 32 32 32 32 33 33 33 33 33 33 34 34 34 34 33 32 31 30 30 31 32 33 34
17 17 18 19 19 20 22 23 24 25 25 26 26 27 28 29 30 30 32 34 33 34 33 32 32 31 31 31 30 30 31 33 35 34 34 34 33 32 32 31 33 35 37
19 19 19 21 22 23 24 26 27 27 28 29 30 31 31 31 32 33 34 34 34 34 33 32 31 29 29 28 28 28 28 30 32 32 33 34 34 34 35 36 36 37 38
22 21 21 23 24 25 26 28 30 30 31 32 34 34 35 34 35 34 35 34 35 35 33 32 31 30 29 28 27 26 28 28 30 31 32 33 35 36 38 40 40 40 41
24 24 24 26 27 29 30 31 32 33 34 35 35 36 36 36 36 36 37 36 36 35 33 32 32 31 29 28 28 28 28 29 30 31 32 34 36 38 40 42 42 44 46
27 27 28 29 31 32 33 34 35 36 37 37 38 38 39 39 39 39 39 38 37 36 35 33 33 33 32 32 31 32 32 32 33 34 35 38 40 41 43 45 47 49 50
31 30 31 33 34 35 36 37 37 38 39 39 40 40 41 41 42 41 41 40 39 38 37 35 35 35 35 35 36 36 36 37 38 39 41 43 45 46 48 49 51 54 56
34 34 34 36 36 37 37 38 38 39 40 41 42 43 43 44 43 43 43 42 41 40 39 38 38 38 38 39 39 40 41 42 44 45 47 49 51 53 54 55 57 59 61
36 37 37 37 37 37 38 38 39 41 42 43 44 45 45 45 45 44 45 44 43 42 42 42 42 42 43 43 44 45 46 48 49 50 52 53 54 56 58 60 62 64 66

GEFSSE_500_meanwind_060.txt.gz
Wind_Speed
8 7 7 8 9 10 10 11 11 11 11 11 11 11 11 11 12 12 13 13 13 14 14 14 14 14 14 13 13 13 13 13 13 12 11 11 11 11 10 10 9 9 9
9 8 8 9 10 10 11 11 11 11 11 12 11 11 11 11 12 12 13 13 13 14 14 14 14 14 14 14 14 14 14 13 13 12 12 12 11 11 11 11 11 11 10
9 8 8 9 9 10 11 10 10 11 11 10 10 10 10 10 11 11 12 12 12 13 13 13 13 13 13 13 13 13 13 12 12 12 11 11 12 11 11 11 11 11 12
7 8 8 8 9 9 10 9 9 9 9 8 8 8 8 8 9 9 10 10 11 11 11 12 12 12 12 12 12 12 12 12 12 12 11 11 12 12 12 12 12 12 12
7 7 7 7 8 8 8 8 8 8 7 7 6 6 6 6 7 7 8 9 9 10 10 10 11 11 12 12 12 13 12 12 12 12 11 12 13 12 12 12 12 12 12
6 6 6 6 7 7 8 7 7 7 6 6 5 5 4 5 5 6 7 7 8 8 9 9 10 11 12 13 13 13 13 12 12 12 12 12 13 12 12 12 12 12 12
6 5 5 5 6 7 7 7 7 6 5 4 4 3 3 3 4 5 6 6 7 7 8 9 10 11 12 13 13 13 13 12 13 13 12 12 12 11 11 12 12 12 12
5 5 5 5 6 6 6 6 6 5 4 4 3 2 1 1 2 4 5 5 6 7 8 8 9 11 12 13 14 14 14 13 13 14 13 13 14 14 13 13 14 13 13
5 5 5 5 5 5 5 5 5 4 4 4 3 2 1 0 1 2 4 5 6 7 8 9 10 11 13 14 15 15 14 14 14 15 15 14 14 14 13 14 15 14 14
5 5 4 5 5 5 5 5 5 5 4 4 3 2 1 1 1 2 4 5 6 7 8 9 10 12 13 15 16 16 15 15 15 15 16 15 15 15 15 15 15 15 15
5 5 5 5 5 5 5 5 4 4 4 3 2 2 1 1 2 3 4 6 7 8 9 10 11 13 14 16 16 16 16 16 16 16 16 16 16 16 16 16 17 17 17
6 6 6 6 6 5 5 4 3 3 3 2 2 1 1 1 2 4 5 6 8 9 10 11 12 14 15 17 17 17 16 17 17 17 18 18 17 18 19 18 18 19 19
7 7 7 6 6 5 4 4 3 3 2 1 0 1 2 3 4 5 6 7 8 9 11 11 13 14 16 18 18 18 18 18 18 18 19 20 20 20 20 20 20 20 21
8 7 7 6 5 4 3 2 2 1 1 0 1 2 3 5 6 7 7 8 9 11 12 13 14 15 16 17 18 19 19 18 18 19 20 20 21 21 22 22 22 22 23
8 8 7 6 5 3 2 1 0 1 2 2 3 3 4 6 7 7 7 8 10 11 13 14 16 16 17 17 19 20 19 19 19 19 20 20 22 23 24 25 25 25 25
9 8 7 7 5 4 3 2 3 4 5 5 5 5 6 7 8 8 9 10 12 13 13 14 15 16 16 17 18 19 20 20 20 19 20 21 22 24 25 26 26 27 28
12 10 9 8 7 6 5 5 6 7 7 8 8 9 9 10 10 11 12 13 13 13 14 14 15 16 17 17 18 19 20 19 20 20 20 21 22 24 27 28 29 29 30
14 13 12 10 10 9 9 9 9 10 10 11 12 12 12 13 14 15 15 16 16 16 16 16 17 17 17 18 18 19 19 20 20 20 20 21 23 24 26 28 30 31 32
15 15 14 13 13 12 13 13 13 13 14 15 16 16 16 17 18 18 19 19 20 19 19 19 19 19 19 20 20 20 21 21 22 23 23 23 24 25 27 28 30 32 33
18 17 15 15 15 15 15 16 17 18 18 19 20 21 22 21 22 22 23 23 23 22 22 22 22 22 22 22 22 22 23 23 24 25 26 27 28 28 29 30 31 32 34
20 19 18 17 16 17 19 20 22 23 23 24 25 26 27 27 27 27 27 27 26 27 26 25 25 25 25 26 26 25 25 25 26 26 28 29 30 31 32 33 34 35 37
21 20 20 18 19 19 21 24 26 27 27 29 30 31 32 32 32 32 31 31 30 30 29 29 28 28 28 29 29 28 28 28 29 30 32 33 34 35 36 37 38 40 41
22 23 23 22 23 23 25 27 29 31 32 34 34 35 36 37 36 36 34 34 32 32 32 32 31 31 31 31 31 32 32 31 32 33 35 37 39 40 41 43 44 46 47
26 26 26 25 25 27 29 30 32 34 36 37 37 38 38 38 38 38 38 36 36 37 36 34 34 34 34 35 36 36 36 37 37 38 40 42 43 45 47 48 50 52 54
29 29 29 30 31 33 33 33 34 36 38 39 38 38 37 37 37 38 38 38 39 39 37 37 38 38 39 39 40 40 41 42 43 44 45 46 48 50 51 54 56 57 59
33 33 33 35 35 35 36 36 38 39 40 40 39 39 39 39 39 40 41 42 42 41 41 41 41 42 43 43 44 45 46 47 48 49 50 51 53 55 57 59 60 62 63

GEFSSE_500_meanwind_066.txt.gz
Wind_Speed
4 4 5 6 8 8 7 7 5 4 4 4 4 5 6 6 7 7 8 9 9 10 10 11 11 11 11 11 11 11 11 11 12 12 12 11 11 11 11 11 11 12 12
5 5 6 6 7 8 8 7 6 5 5 5 5 5 6 6 6 7 7 8 8 9 9 9 10 10 10 10 10 10 10 11 11 11 11 11 11 11 12 12 12 12 13
6 5 6 7 7 7 7 7 6 6 5 5 5 5 5 5 5 5 6 6 7 7 7 8 8 8 8 8 9 9 9 10 10 10 10 11 11 12 12 13 13 13 13
6 6 6 7 7 7 7 7 6 6 5 5 5 4 4 4 4 4 4 4 5 6 6 6 6 7 7 8 8 9 9 9 9 9 10 10 11 11 12 13 13 13 13
7 6 6 7 6 6 6 6 6 6 5 5 5 4 4 3 3 3 3 3 4 5 5 6 6 6 6 7 8 8 9 9 9 9 9 10 11 11 11 12 12 12 12
6 7 7 6 6 6 6 6 6 6 5 5 4 4 3 2 2 2 2 3 4 5 5 6 6 6 6 7 8 9 9 9 9 9 10 10 10 11 11 11 11 12 12
5 6 6 5 5 6 6 6 6 6 5 5 4 3 3 2 2 2 2 3 4 5 5 6 7 7 7 8 8 10 10 10 10 10 10 11 11 11 11 11 12 12 12
5 5 5 4 4 5 6 6 6 6 6 5 5 4 3 2 1 1 2 3 4 5 6 7 8 8 8 8 9 10 11 11 11 11 11 11 12 12 12 12 13 13 13
4 4 4 4 5 5 6 6 6 6 6 6 5 4 4 3 2 2 2 3 4 5 7 8 9 9 9 9 10 10 11 12 12 12 12 12 12 13 13 14 14 13 14
3 3 4 5 6 7 7 7 7 7 7 7 6 5 5 4 3 3 3 4 5 6 8 9 10 10 10 10 10 11 11 12 13 13 13 13 14 14 14 15 15 15 15
3 4 5 6 7 8 8 8 9 8 8 7 7 6 5 5 4 4 4 5 6 7 8 9 11 11 11 12 12 12 12 13 14 15 15 15 15 16 16 17 17 17 18
3 5 6 7 8 8 9 10 10 9 8 8 7 6 6 6 6 5 5 6 7 8 9 10 11 12 12 13 13 13 13 13 14 16 17 17 17 17 18 18 19 19 20
4 5 7 8 8 9 10 10 10 10 9 8 8 7 7 7 7 6 7 8 9 9 10 10 11 13 13 14 14 14 14 14 15 16 17 18 18 19 19 20 21 21 22
4 6 8 8 9 9 9 10 10 10 9 9 9 8 9 9 8 8 8 9 10 11 11 12 13 13 14 14 14 15 14 14 15 16 17 18 19 20 20 21 22 23 23
5 7 8 9 10 10 10 10 10 10 10 10 10 10 10 10 9 9 10 11 12 13 13 13 14 14 14 15 15 16 15 15 15 17 18 19 19 20 21 22 23 24 25
7 8 9 10 11 12 12 11 11 11 11 11 11 11 11 11 11 12 12 13 14 15 15 16 16 16 16 16 17 17 17 17 17 17 18 19 19 20 21 22 23 24 25
8 9 11 12 13 14 13 13 13 13 13 13 13 13 14 14 14 15 16 16 16 17 18 19 19 19 19 18 18 18 18 19 19 19 19 20 20 20 21 22 23 24 25
11 11 13 14 16 16 16 15 15 15 15 15 15 15 16 16 17 18 19 20 20 20 21 21 22 21 21 21 21 21 21 21 21 21 21 22 22 22 23 24 25 26 27
13 14 15 17 18 19 19 19 18 18 18 18 18 19 19 20 21 22 22 24 24 24 25 24 24 24 24 24 24 25 24 23 24 24 25 25 26 26 27 27 28 29 30
17 17 18 19 21 22 22 22 22 21 22 22 23 23 23 24 25 26 25 26 28 29 29 29 28 28 27 27 27 27 26 27 27 27 28 28 29 29 30 31 32 32 33
19 20 21 22 23 24 25 24 25 25 25 25 26 27 27 28 28 28 29 30 31 31 32 32 31 31 30 29 29 29 29 29 30 31 32 32 33 33 34 35 36 36 37
22 21 21 22 24 25 25 26 27 29 29 29 30 29 31 31 32 33 33 34 34 33 33 32 32 33 31 31 32 33 33 32 33 34 35 36 37 37 38 39 40 41 42
23 23 21 22 25 26 27 29 29 31 31 32 32 32 33 34 33 34 34 35 37 37 35 34 35 35 33 34 35 36 36 35 37 38 39 39 40 41 43 44 45 46 47
24 23 23 23 25 26 28 30 32 33 33 34 35 34 33 33 34 35 35 36 37 34 34 35 36 36 36 38 39 38 38 39 39 40 41 43 44 45 46 48 49 51 52
25 24 25 26 27 28 31 32 34 36 36 37 37 37 35 34 36 38 37 38 39 37 38 38 39 40 40 41 40 40 39 41 43 44 45 47 48 49 50 51 53 55 56
27 27 29 28 28 30 31 33 36 37 38 39 40 39 38 38 39 40 40 40 40 41 41 42 42 43 43 43 43 43 44 46 47 48 50 51 52 54 55 56 58 59 60

GEFSSE_500_meanwind_072.txt.gz
Wind_Speed
6 7 7 8 8 8 8 9 9 9 9 8 8 7 5 4 4 3 3 2 2 2 2 2 2 2 3 3 4 4 4 4 5 5 6 7 8 8 9 10 10 11 11
7 7 7 8 8 9 9 10 10 10 10 9 8 7 6 5 5 5 4 3 3 3 2 2 2 3 3 3 3 4 4 4 5 5 6 7 8 9 9 10 11 11 12
8 8 8 8 9 9 10 11 11 11 10 9 8 8 7 6 6 5 5 4 3 3 3 3 3 3 3 3 4 4 4 5 5 6 7 7 8 9 9 10 11 11 12
8 9 9 9 10 10 10 11 11 11 11 10 9 8 7 7 6 5 5 4 4 3 3 3 3 3 3 4 4 5 5 5 6 7 7 8 8 9 10 10 11 11 12
8 9 9 9 9 10 11 12 12 12 11 10 10 9 8 7 7 6 5 4 4 4 3 3 3 3 4 4 5 5 6 7 7 8 9 9 9 10 10 11 11 11 11
8 8 9 9 9 10 12 12 13 12 12 11 10 9 9 8 7 6 5 5 4 4 4 4 4 4 5 5 6 7 7 8 9 9 10 10 11 11 11 12 11 11 11
6 8 8 9 9 10 12 12 13 12 12 11 11 10 9 8 7 6 5 5 4 4 4 4 4 5 6 6 7 8 8 9 10 10 11 11 12 12 12 12 12 12 12
6 7 8 9 10 11 12 12 12 13 12 11 11 10 9 8 8 7 6 5 5 4 4 4 4 5 6 8 8 9 9 10 11 11 12 12 12 13 13 13 13 12 12
6 7 8 9 10 11 12 12 12 12 12 11 11 10 10 9 8 7 6 6 5 4 4 4 5 6 8 9 9 10 11 11 12 12 13 13 13 13 14 14 13 13 13
7 8 9 10 11 12 12 12 12 12 12 12 11 11 10 9 8 7 6 6 5 4 4 5 5 7 8 9 10 10 11 12 13 13 14 14 14 14 14 14 15 15 15
7 8 9 10 11 12 13 13 13 12 12 12 12 11 10 9 8 8 7 7 6 6 6 6 7 8 9 10 11 11 12 13 14 14 14 14 15 15 15 15 15 16 16
7 8 10 11 12 13 13 13 13 13 13 12 12 11 11 9 9 9 8 8 8 8 8 8 9 9 10 11 12 12 13 14 15 16 15 15 16 16 16 16 16 16 17
8 9 10 11 12 13 13 13 13 13 13 13 12 12 11 10 10 10 10 10 10 10 10 10 11 12 12 13 13 14 15 16 16 16 16 16 17 17 17 17 18 18 18
9 10 11 12 12 13 13 13 13 14 14 13 13 13 12 12 12 12 12 12 12 12 13 13 14 14 15 15 15 16 16 17 17 18 18 17 18 18 18 18 19 19 20
11 11 12 13 13 13 14 14 14 14 14 14 14 14 14 14 14 15 15 15 15 15 16 16 16 17 18 18 18 18 18 18 19 19 19 19 19 19 19 19 20 20 20
13 13 13 13 14 14 15 15 15 15 15 16 16 16 16 17 17 17 18 18 18 19 19 19 20 20 21 21 20 20 20 21 21 21 21 21 21 21 21 21 22 22 22
14 15 15 15 15 16 16 16 16 17 17 17 18 18 19 19 20 20 21 22 22 23 23 23 24 24 24 23 23 23 23 24 24 24 24 24 23 24 24 24 24 24 24
16 16 17 17 17 18 18 18 18 18 19 19 20 21 22 22 23 24 25 26 26 26 27 27 27 27 27 27 27 27 27 27 27 27 27 27 27 27 27 27 27 27 28
18 18 18 19 19 20 20 20 20 21 21 22 22 24 25 27 27 28 28 29 30 30 30 30 31 31 29 29 29 29 30 29 29 29 30 30 29 29 30 30 31 31 32
20 19 19 20 21 21 23 23 23 24 24 25 26 27 28 29 30 31 31 31 32 32 32 33 34 33 32 31 31 32 30 31 31 31 32 32 32 33 33 34 35 36 36
22 22 22 22 24 24 26 27 27 28 29 29 30 30 30 31 32 32 31 32 33 34 34 34 35 34 34 33 32 32 32 32 32 34 34 34 35 35 36 37 38 40 41
24 24 24 25 26 28 28 30 30 31 33 33 32 32 32 32 32 32 31 32 33 31 33 34 33 32 32 32 31 30 31 32 33 35 36 36 37 39 40 41 41 42 43
27 26 27 27 29 30 30 31 31 32 32 34 35 36 35 34 35 34 32 32 32 32 32 30 30 31 31 32 32 32 32 33 34 36 38 39 40 42 43 43 45 46 48
29 29 29 29 31 32 32 31 33 34 34 36 36 36 36 35 35 35 35 33 33 32 32 32 34 34 34 34 34 35 36 37 39 40 40 42 44 45 46 48 50 51 52
30 30 31 31 32 32 30 31 32 34 35 36 36 36 36 36 36 36 36 37 35 34 34 35 36 35 35 36 37 38 40 41 42 43 44 45 46 48 50 51 53 55 57
31 32 32 32 32 31 31 32 33 34 35 36 35 34 35 37 38 38 39 39 37 37 37 37 37 38 39 39 40 41 42 44 44 46 48 50 51 52 54 56 58 60 61

GEFSSE_500_meanwind_078.txt.gz
Wind_Speed
9 11 11 12 12 12 12 12 12 12 12 12 11 11 11 10 10 10 9 8 7 7 6 6 6 6 6 6 6 6 6 6 6 7 7 8 8 8 8 8 9 9 10
11 12 13 13 13 13 14 14 14 13 13 13 13 13 12 12 11 10 9 8 8 7 7 7 6 6 6 5 6 6 6 7 7 7 8 8 9 9 9 9 9 9 10
13 13 13 13 14 14 15 15 15 15 14 14 14 13 13 12 12 11 10 9 8 7 7 6 6 6 5 5 5 6 6 7 7 8 8 9 9 9 9 9 9 9 10
14 14 15 15 15 16 16 15 16 16 15 14 14 14 13 13 12 10 10 9 8 7 6 6 6 5 5 5 5 6 6 7 7 8 8 9 9 9 9 9 9 10 10
15 15 16 16 16 17 17 17 16 16 16 15 14 14 13 12 11 10 9 8 8 7 6 6 5 5 5 5 5 6 6 7 7 7 8 8 9 10 10 10 10 10 10
14 16 16 17 17 17 18 18 17 16 16 15 14 13 13 12 11 10 9 8 8 7 6 5 5 5 5 5 5 6 7 7 8 8 8 8 9 10 10 10 11 10 10
14 15 16 16 17 17 17 17 17 17 16 15 14 13 13 12 11 10 9 8 8 7 6 6 5 5 5 6 6 7 7 8 8 8 8 9 10 10 10 11 11 11 11
13 14 15 16 17 17 17 17 17 17 16 15 14 13 13 12 11 10 9 9 8 7 6 6 6 6 6 6 7 7 8 9 8 8 8 9 10 10 10 11 11 11 11
12 13 14 15 16 17 17 17 17 17 16 15 14 14 13 12 11 10 10 9 8 8 7 7 7 7 7 7 8 8 9 9 9 9 9 9 10 10 10 11 11 11 12
12 12 13 15 16 16 17 17 17 16 15 15 14 14 13 12 11 10 10 9 9 9 8 8 8 8 8 9 9 10 10 10 10 10 10 11 11 11 11 12 12 12 12
12 12 12 13 15 16 16 16 16 15 15 14 14 13 13 12 11 11 11 10 10 10 10 10 10 10 10 10 11 11 11 11 11 11 11 13 13 12 12 12 12 13 13
13 12 12 13 14 15 16 16 16 15 15 14 14 13 13 12 12 12 11 11 11 11 12 12 12 12 12 12 13 13 14 14 13 13 13 14 14 14 14 14 14 14 14
14 13 12 12 14 15 15 15 15 15 14 14 13 13 13 12 12 12 12 12 13 13 13 14 14 14 15 15 15 16 16 17 17 16 16 16 16 15 15 16 16 15 15
15 14 13 13 14 14 15 15 14 14 14 14 14 14 14 13 13 13 13 14 14 14 15 16 16 17 17 18 18 19 19 20 21 19 18 19 18 17 17 17 18 18 17
15 15 13 13 13 13 14 14 14 14 15 15 15 15 14 15 14 15 15 16 16 16 17 18 18 19 20 21 22 22 23 24 24 24 22 22 21 21 21 21 21 21 20
15 15 15 14 14 14 14 15 15 15 15 15 15 15 15 15 15 16 17 18 19 19 20 21 21 22 23 23 24 25 26 26 26 26 26 25 25 25 24 24 24 24 23
16 16 15 15 15 15 15 16 16 16 16 16 16 16 17 17 17 18 19 20 21 22 23 24 25 25 26 27 27 28 28 29 29 29 29 28 28 28 27 27 27 27 27
17 16 16 16 15 16 16 16 17 17 17 17 18 18 19 19 20 21 22 23 24 25 26 27 27 27 27 28 29 30 31 31 31 31 31 32 31 30 29 29 29 30 30
18 17 18 18 17 17 17 17 18 18 19 20 20 20 22 22 23 25 25 26 27 28 28 28 28 28 28 29 30 31 32 32 33 32 32 33 33 32 32 30 30 32 33
20 18 19 19 18 18 19 19 19 20 21 22 23 24 24 26 27 28 28 28 29 29 30 29 28 29 29 29 30 31 32 33 32 31 32 33 32 32 33 33 34 35 37
21 20 19 19 20 19 20 20 21 22 24 25 26 27 27 28 29 28 29 30 31 31 29 28 29 30 30 29 28 28 30 31 31 31 32 32 32 32 34 37 38 39 40
22 21 20 20 21 21 22 22 23 24 26 27 28 29 29 30 31 32 32 33 33 33 32 30 30 29 29 30 30 30 31 31 32 32 33 34 35 36 38 39 40 42 44
22 22 21 22 23 24 25 25 25 26 27 29 30 30 31 31 31 32 33 33 32 31 30 30 31 31 31 32 32 32 33 33 34 34 35 36 38 39 39 41 43 45 48
25 25 25 26 26 26 27 26 27 28 29 31 32 33 33 33 34 33 33 32 31 31 31 31 32 32 33 34 34 34 35 36 36 36 37 38 40 41 43 45 46 48 50
28 27 27 28 28 28 28 29 29 30 31 31 32 33 32 33 32 31 31 32 32 31 32 33 34 35 35 36 37 36 37 39 39 39 40 41 43 45 46 49 50 52 53
28 28 28 28 29 30 30 31 32 32 32 33 34 34 33 33 33 32 32 31 32 32 34 35 36 37 38 39 39 40 41 41 41 43 44 45 47 49 52 54 55 56 58